Location: Prague
(50.0830°N, 14.4670°E)
Time: 01:59:36
(UTC+01:00)

O/OREOS (USA 219) - Pass Details

Date: 10 December 2021
Orbit: 621 x 646 km, 72.0° (Epoch: 22 May)

Event Time Altitude Azimuth Distance (km) Brightness Sun altitude
Rises 17:00:41 0° 341° (NNW) 2,953 ? -9.2°
Reaches altitude 10° 17:05:38 10° 28° (NNE) 2,047 ? -9.9°
Maximum altitude 17:05:59 10° 32° (NNE) 2,042 ? -10.0°
Drops below altitude 10° 17:06:19 10° 37° (NE) 2,047 ? -10.0°
Enters shadow 17:06:25 10° 38° (NE) 2,050 ? -10.1°
